Terminal Aerodrome Forecast
Issued by NWS Mt. Holly, NJ

Home | Current Version | Previous Version | Text Only | Print | Product List | Glossary On
Versions: 1 2 3 4 5 6 7 8 9 10 11 12 13 14 15 16 17 18 19 20 21 22 23 24 25 26 27 28 29 30 31 32 33 34 35 36 37 38 39
000
FTUS41 KPHI 270200 AAA
TAFPHL
TAF AMD
KPHL 270234Z 2703/2806 03020G28KT 3SM -SN OVC015
     FM270400 02020G29KT 6SM -SN BKN015 OVC030
     FM270600 35020G28KT 1 1/2SM -SN SCT005 OVC010
     FM271500 34018G28KT 2SM -SN BLSN OVC010
     FM271800 33016G26KT 5SM -SN BLSN OVC015
     FM272200 32015G26KT P6SM SCT025 BKN080=

USA.gov is the U.S. government's official web portal to all federal, state and local government web resources and services.